Regional Weather Roundup
Issued by NWS

Home | Current Version | Previous Version | Text Only | Print | Product List | Glossary Off
Versions: 1 2 3 4 5 6 7 8 9 10 11 12 13 14 15 16 17 18 19 20 21 22 23 24 25 26 27 28 29 30 31 32 33 34 35 36 37 38 39 40 41 42 43 44 45 46 47 48 49 50

000
ASUS43 KLSX 050059
RWRMO

WEATHER SUMMARY FOR MISSOURI
NATIONAL WEATHER SERVICE SPRINGFIELD MO
800 PM CDT SAT JUL 04 2015

NOTE: "FAIR" INDICATES FEW OR NO CLOUDS BELOW 12,000 FEET WITH NO
       SIGNIFICANT WEATHER AND/OR OBSTRUCTIONS TO VISIBILITY.
       CURRENT SKY AND/OR WEATHER CONDITIONS ARE NOT AVAILABLE FOR
       CHILLICOTHE AND FARMINGTON.

MOZ001>031-035>038-043-044-053-054-050200-
...NORTHERN AND WESTERN MISSOURI...

CITY           SKY/WX    TMP DP  RH WIND       PRES   REMARKS
KANSAS CTY INT MOCLDY    78  62  57 SE9       29.94S
KANSAS C DTWN  PTCLDY    80  63  55 SE10      29.92F
LEE`S SUMMIT   PTCLDY    78  61  55 SE6       29.95F
ST JOSEPH      PTCLDY    78  64  61 SE6       29.93F
CHILLICOTHE      N/A     79  64  60 S3        29.96S
KIRKSVILLE     CLEAR     75  64  68 S5        29.99R

$$
MOZ066>068-077>081-088>096-101>105-050200-
...SOUTHWEST MISSOURI...

CITY           SKY/WX    TMP DP  RH WIND       PRES   REMARKS
SPRINGFIELD    PTCLDY    80  68  66 N6        29.96R
JOPLIN         PTCLDY    81  67  62 E5        29.94S

$$
MOZ032>034-039>042-045>050-055>058-069>072-050200-
...CENTRAL MISSOURI...

CITY           SKY/WX    TMP DP  RH WIND       PRES   REMARKS
COLUMBIA       CLEAR     77  66  68 E3        29.98R
JEFFERSON CITY CLEAR     78  67  68 E3        29.96R
ROLLA          CLEAR     75  67  76 E5        29.98R
SEDALIA        PTCLDY    78  67  68 CALM      29.98S
OSAGE BEACH    CLEAR     75  68  78 CALM      29.97S

$$
MOZ051-052-059>065-050200-
...EAST CENTRAL MISSOURI...

CITY           SKY/WX    TMP DP  RH WIND       PRES   REMARKS
ST LOUIS INTL  PTCLDY    78  62  57 E7        29.99R
SPIRIT OF STL  PTCLDY    76  65  68 E3        29.97R
ST CHARLES     CLEAR     76  67  73 E5        29.98R

$$
MOZ072>076-082>087-097>100-106>115-050200-
...SOUTH CENTRAL AND SOUTHEAST MISSOURI...

CITY           SKY/WX    TMP DP  RH WIND       PRES   REMARKS
CAPE GIRARDEAU NOT AVBL
FARMINGTON     MOCLDY    75  64  69 E3        30.03S
POPLAR BLUFF   CLOUDY    77  71  82 SE3       29.96S HAZE
WEST PLAINS    CLEAR     77  68  73 SE3       30.00R

$$



USA.gov is the U.S. government's official web portal to all federal, state and local government web resources and services.